Find Starlink 6212

NORAD ID: 57330 Int'l Des: 2023-099 Owner: SPXS Country: US Constellation: starlink operational
LEOCIRCULAR

实时位置

正在加载3D地球...

关于 Starlink 6212

正在加载描述...

即将过境

Passes for default location (London). Set your location on the main map for personalized predictions.

高度历史

Loading altitude history...

两行轨道根数

1 57330U 23099C 26124.17192536 .00000653 00000-0 33262-4 0 9994
2 57330 43.0030 298.9010 0001585 260.4681 99.5991 15.27577272154563
Epoch: May 4, 2026 • Age: 6 hours

当前状态

高度 483.0 km
速度 7.63 km/s
星下点 19.51°N, 60.69°W
发射日期 Jul 16, 2023
运行时间 2.8 years
类型 internet

技术详情

分类 Payload
质量 305.00 kg
干质量 290.00 kg
总质量 305.00 kg
长度 0.20 m
直径 2.80 m
跨度 9.00 m
形状 Box + pan
制造商 SPXS
平台类型 Starlink
阶段状态 In Orbit
所有者/国家 SPXS/US

Most Searched